User: anonymous   Login
Location: Lawrence Hall of Science
(37.8785°N, 122.2415°W)
Time: 20:41:45
(UTC-07:00)
Language:

NOSS 3-1 (C) - Orbit

View from above orbital plane
View from above orbital plane
View from above satellite
View from above satellite

Ground track
Ground track

The orbit data is extracted from the following two-line orbital elements,

1 26907U 01040C   16266.10145878 0.00000010  00000-0  12562-4 0    08
2 26907  63.4128 353.7174 0349000 358.8430   1.1570 13.41255178    08
Epoch (UTC): 22 September 2016 02:26:06
Eccentricity: 0.0349000
inclination: 63.4128°
perigee height: 843 km
apogee height: 1366 km
right ascension of ascending node: 353.7174°
argument of perigee: 358.8430°
revolutions per day: 13.41255178
mean anomaly at epoch: 1.1570°
orbit number at epoch: 0

The dashed part of the orbit path shows where the satellite is in the earth's shadow,  

DLR